www.pogodaiklimat.ru

Погода и климат >> Архив погоды >> Франция >> Сен-Бриё аэропорт


ПОГОДА в Сен-Бриё аэропорту

  • Прогноз погоды в Сен-Бриё аэропорту
  • Монитор погоды в Сен-Бриё аэропорту

АРХИВ ПОГОДЫ в Сен-Бриё аэропорту

Время (UTC), дата Ветер
(напр.,м/с)
 
Видим.   Явления Облачность Т
(С)
Тd
(С)
f
(%)
Тe
(С)
Тes
(С)
Комфортность P
(гПа)
Po
(гПа)
Тmin
(С)
Tmax
(С)
R
(мм)
R24
(мм)
S
(см)
10 16.07 С 1 20 км н/о +20.2 +13.9 67 +23 +23 комфорт 1019.2 1003.4
11 16.07 СВ 2 20 км н/о +21.0 +16.0 73 +25 +25 комфорт 1018.9 1003.2
12 16.07 СВ 2
{7}
20 км н/о +20.5 +15.1 71 +24 +24 комфорт 1018.9 1003.2
13 16.07 СВ 2 20 км н/о +20.4 +14.7 70 +24 +24 комфорт 1018.8 1003.1
14 16.07 СВ 3 20 км н/о +20.2 +14.6 70 +23 +23 комфорт 1018.9 1003.1
15 16.07 СВ 2
{7}
19 км н/о +20.5 +13.9 66 +24 +24 комфорт 1018.5 1002.8
16 16.07 СВ 2 20 км н/о +20.2 +12.7 62 +23 +23 комфорт 1018.3 1002.5
17 16.07 СВ 2 20 км н/о +19.6 +12.4 63 +22 +22 комфорт 1018.2 1002.4
18 16.07 СВ 2
{6}
20 км н/о +18.2 +12.6 70 +19 +19 1018.3 1002.4 +13.8 +21.4
19 16.07 СВ 1 20 км н/о +17.7 +13.6 77 +19 +19 1018.3 1002.4
20 16.07 С 1 19 км н/о +15.9 +13.7 87 +17 +17 1018.4 1002.4
21 16.07 штиль 0
{2}
10 км н/о +15.2 +14.2 94 +15 +15 1018.6 1002.6
22 16.07 штиль 0 14 км н/о +14.5 +13.5 94 +14 +14 1018.6 1002.5
23 16.07 штиль 0 6000 м н/о +13.9 +13.4 97 +13 +13 1018.4 1002.3
00 17.07 СЗ 1
{2}
7000 м н/о +13.5 +13.2 98 +14 +14 1018.1 1002.0
01 17.07 З 1 4600 м дымка н/о +13.4 +13.4 100 +14 +14 1017.8 1001.7
02 17.07 З 1 3400 м дымка н/о +12.6 +12.1 97 +12 +12 1017.5 1001.3
03 17.07 З 1
{2}
6000 м н/о +12.4 +12.2 99 +12 +12 1017.1 1000.9
04 17.07 З 1 700 м туман ?/? +11.8 +11.8 100 +11 +11 1017.0 1000.8
05 17.07 З 1 6000 м н/о +12.5 +12.5 100 +12 +12 1016.9 1000.7
06 17.07 З 1
{2}
4400 м дымка н/о +13.9 +13.7 99 +15 +15 1016.7 1000.6 +11.6 +18.6 0.2
07 17.07 СЗ 1 6000 м н/о +15.5 +14.7 95 +17 +17 1016.8 1000.8
08 17.07 З 1 12 км н/о +17.0 +14.5 85 +19 +19 1017.0 1001.1
09 17.07 З 1
{3}
20 км н/о +19.3 +11.1 59 +22 +22 комфорт 1016.7 1000.9
10 17.07 СЗ 1 20 км н/о +21.1 +14.0 64 +24 +24 комфорт 1016.3 1000.6
11 17.07 СВ 2 20 км н/о +20.1 +15.1 73 +23 +23 комфорт 1016.2 1000.5
12 17.07 СВ 2
{7}
19 км н/о +20.0 +15.4 75 +23 +23 комфорт 1015.9 1000.2
13 17.07 СВ 3 19 км н/о +19.7 +15.6 77 +22 +22 комфорт 1015.6 999.9
14 17.07 СВ 3 20 км н/о +20.6 +16.6 78 +24 +24 комфорт 1015.6 999.9
15 17.07 С 2
{8}
20 км 10/10 1000 м
[]
+20.6 +13.8 65 +24 +24 комфорт 1015.6 999.9
16 17.07 СЗ 5
{9}
20 км 8/8 1200 м
[]
+21.8 +13.2 58 +24 +25 комфорт 1015.3 999.7
17 17.07 СЗ 5
{8}
20 км н/о +21.2 +13.1 60 +24 +24 комфорт 1015.3 999.6
18 17.07 СЗ 5
{9}
20 км н/о +20.1 +13.1 64 +22 +22 комфорт 1015.2 999.5 +13.9 +22.4
19 17.07 СЗ 5
{8}
20 км н/о +18.7 +12.7 68 +19 +19 1015.1 999.3
20 17.07 СЗ 2
{6}
20 км н/о +16.0 +11.6 75 +16 +16 1015.3 999.4
21 17.07 З 2
{3}
20 км н/о +15.0 +11.9 82 +15 +15 1015.8 999.8
22 17.07 З 1 20 км 10/1 800 м
[]
+15.3 +13.5 89 +16 +16 1015.8 999.8
23 17.07 ЮЗ 3
{5}
20 км н/о +15.3 +13.1 87 +15 +15 1015.5 999.5
00 18.07 ЮЗ 1
{4}
20 км 9/0 2000 м
[]
+14.9 +13.1 89 +15 +15 1015.4 999.4
01 18.07 ЮЗ 2 19 км н/о +14.3 +13.0 92 +14 +14 1014.9 998.9
02 18.07 ЮЗ 2 20 км 8/8 2000 м
[]
+14.9 +13.8 93 +15 +15 1014.1 998.1
03 18.07 ЮЗ 2
{7}
20 км 9/0 2000 м
[]
+15.4 +13.9 91 +15 +15 1013.6 997.7
04 18.07 З 5
{8}
20 км 10/10 700 м
[]
+16.2 +14.9 92 +15 +15 1013.6 997.7
05 18.07 ЮЗ 4
{7}
20 км 10/10 630 м
[]
+16.8 +15.3 91 +16 +16 1013.5 997.6
06 18.07 ЮЗ 2
{7}
16 км 10/10 300 м
[]
+16.5 +15.4 93 +17 +17 1013.6 997.7 +14.2 +20.2
07 18.07 СЗ 2 4000 м дымка 10/10 180 м
[]
+16.6 +16.3 98 +17 +17 1014.0 998.1 0.4
08 18.07 ЮЗ 2 20 км 10/10 210 м
[]
+18.0 +16.8 93 +19 +19 1013.9 998.1 0.0
09 18.07 З 2
{6}
20 км 10/10 300 м
[]
+19.2 +17.3 89 +22 +22 комфорт 1013.8 998.1 0.4
10 18.07 СЗ 3 20 км 10/8 540 м
[]
+19.6 +16.4 82 +22 +23 комфорт 1014.0 998.3
11 18.07 СЗ 2 20 км 10/10 570 м
[]
+19.5 +15.8 79 +22 +22 комфорт 1014.3 998.6
12 18.07 З 2
{8}
20 км 10/10 600 м
[]
+20.2 +15.8 76 +23 +25 комфорт 1014.4 998.7
13 18.07 З 3 20 км 10/6 900 м
[]
+22.1 +15.0 64 +26 +29 душно 1014.2 998.6
14 18.07 СЗ 2 20 км 9/6 1080 м
[]
+21.6 +14.3 63 +25 +28 комфорт 1014.1 998.5
15 18.07 З 2
{7}
20 км 10/10 1000 м
[]
+22.2 +14.3 61 +25 +25 комфорт 1014.1 998.5
16 18.07 З 1 20 км 10/10 1020 м
[]
+21.0 +13.7 63 +25 +25 комфорт 1014.3 998.6
17 18.07 В 1 20 км 10/10 1000 м
[]
+20.6 +14.7 69 +24 +24 комфорт 1014.5 998.8
18 18.07 ЮВ 1
{4}
20 км 10/10 600 м
[]
+18.7 +14.6 77 +21 +21 комфорт 1014.8 999.0 +16.3 +23.0
19 18.07 СЗ 2 20 км 10/10 840 м
[]
+19.2 +13.4 69 +21 +21 комфорт 1015.0 999.2
20 18.07 СЗ 2 20 км 9/9 840 м
[]
+17.3 +12.8 75 +18 +18 1015.5 999.6
21 18.07 З 1
{7}
20 км 10/10 600 м
[]
+16.2 +12.4 78 +17 +17 1015.9 1000.0
22 18.07 З 1 20 км н/о +15.6 +12.5 82 +16 +16 1016.1 1000.1
23 18.07 ЮЗ 1 20 км 9/6 1050 м
[]
+15.3 +13.0 86 +17 +17 1016.3 1000.3
00 19.07 ЮЗ 1
{3}
20 км н/о +15.1 +13.0 87 +16 +16 1016.0 1000.0
01 19.07 ЮЗ 1 20 км н/о +14.6 +13.0 90 +15 +15 1015.8 999.8
02 19.07 ЮЗ 1 20 км н/о +14.2 +13.1 93 +14 +14 1015.5 999.5
03 19.07 Ю 1
{4}
20 км н/о +13.2 +12.6 96 +13 +13 1015.2 999.1
04 19.07 Ю 1 20 км 9/9 500 м
[]
+13.9 +12.9 94 +14 +14 1015.0 998.9
05 19.07 ЮЗ 2 19 км 9/9 960 м
[]
+14.9 +13.8 93 +15 +15 1014.6 998.6
06 19.07 Ю 2
{8}
20 км н/о +15.7 +14.1 90 +16 +16 1014.4 998.5 +13.2 +20.1
07 19.07 ЮЗ 3 20 км 8/8 500 м
[]
+17.6 +15.0 85 +18 +18 1014.2 998.4
08 19.07 ЮЗ 3 20 км 10/9 500 м
[]
+18.8 +15.5 81 +20 +20 1014.2 998.4
09 19.07 ЮЗ 3
{10}
20 км 10/10 300 м
[]
+19.0 +15.9 82 +21 +21 комфорт 1014.0 998.3
10 19.07 ЮЗ 3 20 км 10/10 570 м
[]
+20.4 +16.6 79 +24 +24 комфорт 1014.0 998.3
11 19.07 ЮЗ 3 20 км 10/10 570 м
[]
+20.5 +16.5 78 +24 +24 комфорт 1013.7 998.0
12 19.07 ЮЗ 3
{11}
20 км 10/10 300 м
[]
+21.0 +16.8 77 +25 +25 комфорт 1013.4 997.8
13 19.07 ЮЗ 3 20 км 10/10 570 м
[]
+21.6 +17.2 76 +26 +26 душно 1013.4 997.8
14 19.07 ЮЗ 3 20 км 10/10 540 м
[]
+21.2 +17.4 79 +25 +25 комфорт 1013.2 997.6
15 19.07 ЮЗ 3
{11}
20 км 10/10 300 м
[]
+20.3 +17.7 85 +24 +24 комфорт 1013.0 997.4
17 19.07 Ю 3 18 км 10/10 240 м
[]
+19.2 +18.2 94 +22 +22 комфорт 1012.1 996.4 0.0
18 19.07 ЮЗ 2
{10}
20 км 10/10 300 м
[]
+19.4 +17.9 91 +22 +22 комфорт 1011.6 995.9 +15.7 +22.6 0.2
19 19.07 Ю 2 20 км 10/10 360 м
[]
+19.2 +17.7 91 +22 +22 комфорт 1011.4 995.7
20 19.07 Ю 2 20 км 10/10 240 м
[]
+18.6 +17.4 93 +20 +20 1011.1 995.4
21 19.07 ЮЗ 3
{10}
20 км 10/10 200 м
[]
+18.4 +17.2 93 +19 +19 1011.0 995.3
22 19.07 ЮЗ 2 16 км 10/10 210 м
[]
+18.2 +17.4 95 +19 +19 1010.8 995.1
23 19.07 Ю 3 6000 м слаб. дождь 10/8 240 м
[]
+18.1 +17.5 96 +19 +19 1010.5 994.8 0.2
00 20.07 ЮЗ 3
{9}
20 км 10/10 300 м
[]
+18.2 +17.4 95 +19 +19 1010.1 994.4 0.2
01 20.07 ЮЗ 3 20 км 10/10 400 м
[]
+18.3 +17.3 94 +19 +19 1009.5 993.8
02 20.07 ЮЗ 3 16 км 10/10 300 м
[]
+18.3 +17.5 95 +19 +19 1009.2 993.5
03 20.07 ЮЗ 2
{9}
19 км 10/10 300 м
[]
+18.3 +17.7 96 +19 +19 1009.1 993.4 0.0
05 20.07 ЮЗ 2 19 км 10/10 420 м
[]
+18.7 +17.4 92 +20 +20 1008.9 993.2
06 20.07 З 3
{10}
20 км 10/10 300 м
[]
+18.8 +16.9 89 +20 +20 1009.5 993.8 +17.9 +19.4 0.2
07 20.07 З 3 20 км 10/10 420 м
[]
+19.5 +17.1 86 +22 +22 комфорт 1010.2 994.6
08 20.07 З 4 20 км 9/9 540 м
[]
+20.0 +16.0 78 +23 +23 комфорт 1010.8 995.2
09 20.07 З 3
{10}
20 км 9/9 600 м
[]
+19.9 +15.3 75 +22 +23 комфорт 1011.5 995.8
10 20.07 СЗ 3 20 км 10/9 800 м
[]
+20.9 +15.4 71 +25 +25 комфорт 1011.9 996.3
11 20.07 З 3 20 км 9/9 1080 м
[]
+22.1 +14.5 62 +25 +27 комфорт 1012.3 996.7
12 20.07 З 3
{10}
20 км н/о +23.0 +14.8 60 +27 +27 душно 1012.6 997.1
13 20.07 З 3 20 км 10/9 1050 м
[]
+22.9 +15.2 62 +27 +28 душно 1013.2 997.7
14 20.07 З 3 20 км 9/9 1300 м
[]
+23.4 +14.4 57 +27 +28 душно 1013.7 998.2
15 20.07 З 4
{11}
20 км 9/9 1000 м
[]
+22.9 +14.5 59 +27 +30 душно 1014.1 998.6
16 20.07 З 4 20 км н/о +22.6 +14.7 61 +26 +26 жарко 1014.6 999.0
17 20.07 СЗ 3 20 км 9/5 720 м
[]
+20.9 +16.3 75 +25 +26 комфорт 1015.4 999.7
18 20.07 З 2
{9}
20 км н/о +20.6 +16.4 77 +24 +24 комфорт 1016.0 1000.3 +18.8 +23.9 0.0
19 20.07 СЗ 2 20 км н/о +19.5 +15.6 78 +22 +22 комфорт 1016.7 1000.9
20 20.07 СЗ 2 20 км н/о +17.3 +14.8 85 +18 +18 1017.7 1001.8
21 20.07 З 1
{4}
20 км н/о +16.6 +15.0 90 +17 +17 1018.8 1002.8
22 20.07 З 1 20 км 10/10 420 м
[]
+16.3 +15.0 92 +17 +17 1019.4 1003.4
23 20.07 З 1 20 км 9/9 480 м
[]
+15.9 +14.3 90 +17 +17 1019.8 1003.8
00 21.07 З 1
{2}
20 км 9/9 300 м
[]
+15.9 +14.1 89 +17 +17 1020.2 1004.2
01 21.07 З 1 20 км н/о +15.1 +13.8 92 +16 +16 1020.4 1004.3
02 21.07 Ю 1 20 км н/о +14.7 +13.7 94 +15 +15 1020.5 1004.4
03 21.07 Ю 1
{3}
18 км н/о +14.1 +13.6 97 +14 +14 1020.5 1004.4
04 21.07 Ю 1 17 км н/о +13.2 +12.9 98 +13 +13 1021.0 1004.8
05 21.07 Ю 1 18 км н/о +13.5 +13.2 98 +14 +14 1021.5 1005.3
06 21.07 ЮЗ 1
{4}
18 км н/о +15.3 +14.3 94 +16 +16 1022.0 1005.9 +12.9 +21.2 0.2
07 21.07 З 1 18 км 9/9 180 м
[]
+16.2 +14.9 92 +17 +17 1022.1 1006.1
08 21.07 ЮЗ 1 20 км н/о +18.2 +14.9 81 +20 +20 1022.3 1006.4
09 21.07 Ю 1
{5}
20 км н/о +20.1 +14.9 72 +24 +24 комфорт 1022.2 1006.4
10 21.07 ЮЗ 2 20 км 9/9 840 м
[]
+21.2 +15.3 69 +24 +26 комфорт 1022.3 1006.5
11 21.07 Ю 2 20 км 10/10 960 м
[]
+22.1 +15.2 65 +26 +26 душно 1022.2 1006.5
12 21.07 З 2
{7}
20 км 9/9 1000 м
[]
+22.7 +14.8 61 +26 +28 жарко 1022.4 1006.7
13 21.07 ЮЗ 2 20 км 9/9 1170 м
[]
+23.5 +15.0 59 +26 +28 жарко 1022.2 1006.6
14 21.07 ЮЗ 2 20 км 10/10 1500 м
[]
+23.9 +14.9 57 +27 +27 жарко 1022.1 1006.5
15 21.07 ЮЗ 2
{6}
20 км 10/10 1000 м
[]
+24.3 +16.0 60 +28 +31 душно 1022.0 1006.4
16 21.07 СВ 2 20 км 10/9 1200 м
[]
+21.6 +17.0 75 +26 +26 душно 1022.4 1006.7
17 21.07 СВ 2 20 км н/о +20.2 +15.6 75 +23 +23 комфорт 1022.6 1006.8
18 21.07 СВ 2
{6}
20 км н/о +20.4 +15.6 74 +24 +24 комфорт 1022.8 1007.0 +15.3 +25.0
19 21.07 СВ 2 20 км н/о +18.8 +14.5 76 +21 +21 комфорт 1023.3 1007.4
20 21.07 В 1 20 км н/о +17.5 +14.2 81 +19 +19 1023.8 1007.8
21 21.07 ЮВ 1
{2}
20 км н/о +17.0 +14.5 85 +19 +19 1024.2 1008.2
22 21.07 Ю 1 20 км н/о +16.6 +14.4 87 +18 +18 1024.5 1008.5
23 21.07 Ю 1 20 км н/о +16.7 +14.5 87 +18 +18 1024.4 1008.4
00 22.07 ЮЗ 1
{3}
20 км н/о +16.3 +14.3 88 +18 +18 1024.4 1008.3
01 22.07 З 2 20 км н/о +15.5 +14.4 93 +16 +16 1024.4 1008.3
02 22.07 ЮЗ 1 20 км н/о +15.8 +14.8 94 +17 +17 1023.9 1007.8
03 22.07 З 1
{2}
19 км н/о +14.7 +14.2 97 +16 +16 1024.2 1008.1
04 22.07 Ю 1 19 км н/о +14.0 +13.8 99 +15 +15 1024.0 1007.8
05 22.07 Ю 1 18 км н/о +13.5 +13.3 99 +14 +14 1024.1 1007.9
06 22.07 Ю 1
{4}
20 км н/о +14.5 +13.7 95 +15 +15 1024.2 1008.0 +13.4 +20.3
07 22.07 ЮВ 1 20 км н/о +17.3 +15.3 88 +18 +18 1024.3 1008.3
08 22.07 ЮВ 1 20 км н/о +20.3 +15.5 74 +24 +24 комфорт 1024.2 1008.4
09 22.07 Ю 1
{4}
20 км н/о +22.0 +14.9 64 +25 +25 комфорт 1024.0 1008.3
10 22.07 ЮВ 1 20 км н/о +23.2 +15.3 61 +27 +27 душно 1023.7 1008.0
11 22.07 В 1 20 км н/о +23.6 +15.9 62 +27 +27 жарко 1023.4 1007.8
12 22.07 СВ 3
{7}
20 км н/о +22.5 +16.5 69 +27 +27 душно 1023.4 1007.7
13 22.07 СВ 3 20 км н/о +22.4 +16.9 71 +27 +27 душно 1023.0 1007.3
14 22.07 СВ 3 20 км н/о +21.9 +16.6 72 +26 +26 душно 1022.8 1007.1
15 22.07 СВ 3
{7}
20 км н/о +21.7 +16.0 70 +25 +25 комфорт 1022.4 1006.7
16 22.07 СВ 3 20 км н/о +22.0 +15.8 68 +26 +26 душно 1022.0 1006.3
17 22.07 СВ 2 20 км н/о +21.2 +15.1 68 +24 +24 комфорт 1021.9 1006.1
18 22.07 СВ 2
{5}
20 км н/о +20.6 +14.5 68 +24 +24 комфорт 1021.5 1005.7 +14.6 +24.1
20 22.07 СВ 1 20 км н/о +16.6 +14.1 85 +17 +17 1021.6 1005.6
21 22.07 СВ 1
{3}
20 км н/о +16.4 +15.3 93 +18 +18 1021.4 1005.4
22 22.07 СЗ 1 20 км н/о +15.8 +14.8 94 +17 +17 1021.1 1005.1
23 22.07 СЗ 1 12 км н/о +15.5 +15.3 99 +17 +17 1020.9 1004.9
00 23.07 З 1
{2}
8000 м н/о +15.5 +15.5 100 +17 +17 1020.5 1004.5
01 23.07 С 1 8000 м н/о +15.1 +14.9 99 +16 +16 1020.0 1003.9
02 23.07 штиль 0 6000 м н/о +15.5 +15.5 100 +15 +15 1019.2 1003.2
03 23.07 В 1
{2}
800 м туман н/о +15.5 +15.5 100 +17 +17 1018.6 1002.6
04 23.07 ЮВ 1 11 км н/о +15.9 +15.9 100 +16 +16 1017.6 1001.6
05 23.07 ЮВ 1 11 км н/о +15.6 +15.6 100 +17 +17 1016.9 1000.9
06 23.07 В 1
{2}
15 км н/о +17.0 +16.2 95 +18 +18 1016.0 1000.1 +14.9 +20.8 0.2
07 23.07 Ю 1 20 км н/о +19.3 +16.9 86 +22 +22 комфорт 1015.9 1000.2
08 23.07 ЮВ 1 20 км 9/9
[]
+21.9 +17.5 76 +26 +27 душно 1015.3 999.7
09 23.07 Ю 1 19 км 10/10
[]
+26.2 +19.3 66 +32 +32 очень
душно
1014.8 999.4
10 23.07 ЮВ 1 20 км 9/9
[]
+29.7 +19.7 55 +36 +37 очень
душно
1014.4 999.2

 

Местоположение метеостанции Сен-Бриё аэропорт (Франция): широта 48.53 долгота -2.85 высота над уровнем моря 138 м.

В архиве по умолчанию представлена погода в Сен-Бриё аэропорту за последнюю неделю. Архивные данные за месяц целиком и за предыдущие месяцы, начиная с января 2011 года, Вы можете получить, выбрав интересующий диапазон дат из раскрывающегося списка и нажав кнопку "Ввод!".


*Определитесь, кто Вы:
робот инопланетянин человек

Внимание! Время в таблицах - всемирное. Для получения местного времени необходимо прибавить поправку, которая равна 1 ч.

Смотрите также архив погоды в соседних городах и на ближайших метеорологических станциях:

Погода в Ланьоне (Франция) (52 км)
Погода в Перрос-Гиреке (Франция) (56 км)
Погода в Динаре (Франция) (58 км)
Погода в Иль-де-Ба (Франция) (89 км)
Погода в Аэропорту Джерси (Великобритания) (90 км)
Погода в Лорьене (Франция) (96 км)
Погода в Ландивизио (Франция) (96 км)
Погода на Пуэнт-дю-Оке (Франция) (96 км)
Погода в Ренне (Франция) (97 км)
Погода в Аэропорту Гернси (Великобритания) (102 км)

Пояснения к столбцам:

Ветер - указаны скорость ветра в м/с - средняя за 10 мин, порывы в срок и между сроками (в фигурных скобках) и направление, откуда дует ветер: С - северный, СВ - северо-восточный, В - восточный, ЮВ - юго-восточный, Ю - южный, ЮЗ - юго-западный, З - западный, СЗ - северо-западный.
Видимость - горизонтальная дальность видимости в метрах или километрах. При видимости от 1 до 10 км при отсутствии осадков обычно наблюдается дымка, при ухудшении видимости до 1 км и менее - туман. В сухую погоду видимость может ухудшаться дымом, пылью или мглою.
Явления - указаны атмосферные явления, наблюдавшиеся в срок или в последний час перед сроком; фигурными скобками обозначены явления, наблюдавшиеся между сроками (за 1-3 часа до срока); квадратными скобками обозначены град или гололедные отложения с указанием их диаметра в мм.
Облачность - указаны через наклонную черту общая и нижняя облачность в баллах и высота нижней границы облаков в метрах; квадратными скобками обозначены формы облаков: Ci - перистые, Cs - перисто-слоистые, Cc - перисто-кучевые, Ac - высококучевые, As - высокослоистые, Sc - слоисто-кучевые, Ns - слоисто-дождевые, Cu - кучевые, Cb - кучево-дождевые. Подробнее классификацию облаков см. в Атласе облаков (PDF).
T - Температура воздуха - температура, измеренная на высоте 2 м над землей.
Td - Температура точки росы - температура, при понижении до которой содержащийся в воздухе водяной пар достигнет насыщения.
f - Относительная влажность воздуха - влажноcть воздуха, измеренная на высоте 2 м над землей.
Te - Эффективная температура - температура, которую ощущает одетый по сезону человек в тени. Характеристика душности погоды. При расчете учитывается влияние влажности воздуха и скорости ветра на теплоощущения человека.
Tes - Эффективная температура на солнце - температура, которую ощущает человек, с поправкой на солнечный нагрев. Характеристика знойности погоды. Зависит от высоты солнца над горизонтом, облачности и скорости ветра. Ночью, в пасмурную погоду, а также при ветре 12 м/с и более поправка равна нулю.
P - Атмосферное давление - приведенное к уровню моря атмосферное давление.
Po - Атмосферное давление - измеренное на уровне метеостанции атмосферное давление.
Tmin - Минимальная температура - минимум температуры воздуха на высоте 2 м над землей.
Tmax - Максимальная температура - максимум температуры воздуха на высоте 2 м над землей.
R - Количество осадков - Количество выпавших осадков за период времени, мм. При наведении курсора мыши на число - период времени, за который выпало указанное количество осадков.
R24 - Количество осадков - Количество выпавших осадков за 24 часа, мм.
S - Снежный покров - Высота снежного покрова, см. При наведении курсора мыши на число - состояние снежного покрова и степень покрытия местности в баллах.